Вернуться в каталог

SL-14 DEB

АктивенPO
NORAD 69735·DEBRIS·🇨🇳 China

Запущен Jan 17, 1986 с Plesetsk Cosmodrome

Loading…

Ближайшие Пролёты (ближайшие 24 часа)

TLE

СвежийSource: Space-Track

Эпоха: Sep 14, 2026, 11:47 UTC

1 69735U 86006D   26257.49127467  .00009737  00000-0  87246-3 0  9998
2 69735  82.5419  85.5084 0088710  25.0996 335.4495 14.92655265 68884

Отслеживайте SL-14 DEB в реальном времени с AllMySat

Download on the App Store